Overview Statistics Trail Chart Weather Telemetry Raw packets
 

This is the latest recevied weather packets stored in our database for station/object VK6WB. If no packets are shown the sender has not sent any weather packets the latest 10 day(s).

<< 13 14 15 16 17 18 19 >>
Time Temp. Humidity Pressure Rain* Wind** Luminosity Snow
1777373408 18.33° C 10% 1009.3 hPa 0 mm - 325 W/m² -
1777372808 18.33° C 10% 1009 hPa 0 mm - 325 W/m² -
1777372209 18.33° C 10% 1008.8 hPa 0 mm - 325 W/m² -
1777371606 18.33° C 10% 1008.6 hPa 0 mm - 325 W/m² -
1777371005 18.33° C 10% 1008.5 hPa 0 mm - 325 W/m² -
1777370404 18.33° C 10% 1008.5 hPa 0 mm - 377 W/m² -
1777369805 18.89° C 10% 1008.5 hPa 0 mm - 377 W/m² -
1777369204 18.89° C 10% 1008.6 hPa 0 mm - 428 W/m² -
1777368610 18.89° C 10% 1008.6 hPa 0 mm - 480 W/m² -
1777368007 19.44° C 10% 1008.6 hPa 0 mm - 532 W/m² -
1777367405 19.44° C 10% 1008.7 hPa 0 mm - 584 W/m² -
1777366805 19.44° C 10% 1008.7 hPa 0 mm - 636 W/m² -
1777366209 19.44° C 10% 1008.8 hPa 0 mm - 636 W/m² -
1777365608 19.44° C 10% 1009 hPa 0 mm - 688 W/m² -
1777365005 20° C 10% 1009 hPa 0 mm - 739 W/m² -
1777364404 20° C 10% 1008.9 hPa 0 mm - 739 W/m² -
1777363805 20° C 10% 1009 hPa 46.99 mm - 791 W/m² -
1777363204 20° C 10% 1009.1 hPa 46.99 mm - 895 W/m² -
1777362605 20° C 10% 1008.9 hPa 46.99 mm - 946 W/m² -
1777362004 20.56° C 10% 1008.9 hPa 46.99 mm - 1050 W/m² -
1777361405 20.56° C 10% 1009 hPa 46.99 mm - 1101 W/m² -
1777360804 20° C 10% 1009 hPa 46.99 mm - 1153 W/m² -
1777360205 27.22° C 35% 1008.9 hPa 0 mm - 841 W/m² -
1777359604 27.22° C 35% 1009 hPa 0 mm - 841 W/m² -
1777359005 27.22° C 35% 1008.9 hPa 0 mm - 841 W/m² -

* Rain latest hour (hover to see other rain measurements)
** Current wind speed in m/s (hover to see current wind gust speed)